Flag for Brazil Weather past 2 weeks in Teresina, Piauí, Brazil

Now
99 °F

Passing clouds.


Feels Like: 98 °F
Forecast: N/A
Wind: 2 mph from Southwest

Location: Teresina Aeroporto

Current Time: Aug 30, 2015 at 5:45:17 PM

Latest Report: Aug 30, 2015 at 5:00 PM


Visibility: N/A

Pressure: 29.83 "Hg

Humidity: 25%

Dew point: 57 °F

Location of TeresinaLocation

Historic Weather in Teresina — Graph

°F

Teresina temperature yesterday

Maximum temperature yesterday: 97 °F (at 2:00 PM)
Minimum temperature yesterday: 77 °F (at 4:00 AM)
Average temperature yesterday: 87 °F

Past Weeks' High & Low Weather Summary

 TemperatureHumidityPressure
High102 °F (Aug 27, 3:00 PM)94% (Aug 23, 5:00 AM)30.01 "Hg (Aug 23, 5:00 AM)
Low72 °F (Aug 16, 6:00 AM)18% (Aug 27, 3:00 PM)29.71 "Hg (Aug 23, 4:00 PM)
Average86 °F53%29.87 "Hg
* Reported Aug 15 4:00 PM — Aug 30 4:00 PM, Teresina, Weather by CustomWeather, © 2015

Note: Actual official high and low records may vary slightly from our data, if they occured in-between our weather recording intervals... More about our weather records

Advertising

Teresina weather history for previous 24 hours

 ConditionsComfort  
Time TempWeatherWind HumidityBarometerVisibility
4:00 PM
Sun, Aug 30
100 °FPassing clouds.6 mph22%29.83 "HgN/A
3:00 PM99 °FSunny.8 mph27%29.86 "Hg10 mi
2:00 PM97 °FPassing clouds.6 mph28%29.89 "HgN/A
1:00 PM95 °FPassing clouds.7 mph32%29.92 "HgN/A
12:00 PM93 °FScattered clouds.10 mph36%29.95 "HgN/A
11:00 AM91 °FSunny.7 mph41%29.98 "Hg10 mi
10:00 AM90 °FSunny.No wind46%30.01 "Hg10 mi
9:00 AM84 °FSunny.5 mph62%30.01 "Hg10 mi
8:00 AM82 °FSunny.6 mph66%30.01 "Hg10 mi
7:00 AM79 °FPartly sunny.No wind79%29.98 "HgN/A
6:00 AM75 °FSunny.No wind89%29.95 "Hg10 mi
5:00 AM75 °FClear.No wind89%29.92 "Hg10 mi
4:00 AM75 °FClear.No wind83%29.92 "Hg10 mi
3:00 AM77 °FClear.5 mph79%29.89 "Hg10 mi
2:00 AM79 °FClear.7 mph74%29.89 "Hg10 mi
1:00 AM81 °FClear.7 mph70%29.92 "Hg10 mi
12:00 AM82 °FClear.7 mph62%29.92 "Hg10 mi
11:00 PM
Sat, Aug 29
86 °FClear.8 mph52%29.92 "Hg10 mi
10:00 PM86 °FClear.No wind55%29.92 "Hg10 mi
9:00 PM86 °FClear.2 mph52%29.89 "Hg10 mi
8:00 PM88 °FClear.No wind49%29.86 "Hg10 mi
7:00 PM90 °FClear.3 mph43%29.86 "Hg10 mi
6:00 PM95 °FClear.3 mph34%29.83 "Hg10 mi
5:00 PM97 °FSunny.5 mph28%29.83 "Hg10 mi
Weather by CustomWeather, © 2015

See weather overviewHow to use our weather pages